Montevideo, MN

3:44 AM CDT on April 27, 2017 (GMT -0500)
Montevideo-Chippewa County

Weather History for KMVE - June, 2013

Change the Weather History Date:

Sunday, June 30, 2013

  Actual Average Record
Temperature  
Mean Temperature 68 °F -  
Max Temperature 80 °F 81 °F 98 °F (1963)
Min Temperature 57 °F 59 °F 5 °F (1999)
Cooling Degree Days 4    
Growing Degree Days 18 (Base 50)    
Moisture  
Dew Point 52 °F    
Average Humidity 57    
Maximum Humidity 94    
Minimum Humidity 32    
Precipitation  
Precipitation 0.00 in - - ()
Sea Level Pressure  
Sea Level Pressure 30.12 in    
Wind  
Wind Speed 4 mph (ENE)    
Max Wind Speed 13 mph    
Max Gust Speed 21 mph    
Visibility 10 miles    
Events      
Averages and records for this station are not official NWS values.
T = Trace of Precipitation, MM = Missing Value Source: NWS Daily Summary

Daily Weather History Graph

Daily Weather History Graph

Search for Another Location

Airport or City:

Trip Planner

Search our weather history database for the weather conditions in past years. The results will help you decide how hot, cold, wet, or windy it might be!

Date:

Astronomy

Jun. 30, 2013 Rise Set
Actual Time 5:39 AM CDT 9:13 PM CDT
Civil Twilight 5:02 AM CDT 9:50 PM CDT
Nautical Twilight 4:13 AM CDT 10:39 PM CDT
Astronomical Twilight 3:08 AM CDT 11:43 PM CDT
Moon 12:52 AM CDT (6/30) 2:17 PM CDT (6/30)
Length of Visible Light 16h 47m
Length of Day
15h 33m
Last Quarter, 45% of the Moon is Illuminated
Jun 30
Last Quarter
Jul 8
New
Jul 15
First Quarter
Jul 22
Full
Jul 29
Last Quarter

Hourly Weather History & Observations

Time (CDT) Temp. Dew Point Humidity Pressure Visibility Wind Dir Wind Speed Gust Speed Precip Events Conditions
12:14 AM 60.8 °F 53.6 °F 77% 30.03 in 10.0 mi East 4.6 mph - N/A   Clear
12:34 AM 60.8 °F 53.6 °F 77% 30.04 in 10.0 mi East 4.6 mph - N/A   Clear
12:54 AM 60.8 °F 53.6 °F 77% 30.05 in 10.0 mi East 3.5 mph - N/A   Clear
1:14 AM 60.8 °F 53.6 °F 77% 30.05 in 10.0 mi East 4.6 mph - N/A   Clear
1:34 AM 60.8 °F 53.6 °F 77% 30.05 in 10.0 mi East 5.8 mph - N/A   Clear
1:54 AM 60.8 °F 53.6 °F 77% 30.06 in 10.0 mi ENE 3.5 mph - N/A   Clear
2:13 AM 59.0 °F 53.6 °F 82% 30.07 in 10.0 mi ENE 4.6 mph - N/A   Clear
2:34 AM 59.0 °F 53.6 °F 82% 30.08 in 10.0 mi ENE 3.5 mph - N/A   Clear
2:54 AM 59.0 °F 53.6 °F 82% 30.08 in 10.0 mi ENE 3.5 mph - N/A   Clear
3:13 AM 60.8 °F 53.6 °F 77% 30.08 in 10.0 mi ENE 3.5 mph - N/A   Clear
3:34 AM 59.0 °F 55.4 °F 88% 30.08 in 10.0 mi East 5.8 mph - N/A   Clear
3:54 AM 59.0 °F 53.6 °F 82% 30.08 in 10.0 mi ENE 4.6 mph - N/A   Clear
4:14 AM 59.0 °F 55.4 °F 88% 30.08 in 10.0 mi Calm Calm - N/A   Clear
4:34 AM 59.0 °F 53.6 °F 82% 30.08 in 10.0 mi Calm Calm - N/A   Clear
4:54 AM 59.0 °F 53.6 °F 82% 30.09 in 10.0 mi Calm Calm - N/A   Clear
5:14 AM 59.0 °F 53.6 °F 82% 30.09 in 10.0 mi Calm Calm - N/A   Clear
5:34 AM 59.0 °F 53.6 °F 82% 30.10 in 10.0 mi Calm Calm - N/A   Clear
5:54 AM 59.0 °F 53.6 °F 82% 30.10 in 10.0 mi Calm Calm - N/A   Clear
6:14 AM 59.0 °F 53.6 °F 82% 30.11 in 10.0 mi Calm Calm - N/A   Clear
6:34 AM 57.2 °F 53.6 °F 88% 30.12 in 10.0 mi Calm Calm - N/A   Clear
6:54 AM 57.2 °F 55.4 °F 94% 30.12 in 10.0 mi ENE 3.5 mph - N/A   Clear
7:14 AM 59.0 °F 55.4 °F 88% 30.13 in 10.0 mi Calm Calm - N/A   Clear
7:34 AM 60.8 °F 55.4 °F 82% 30.14 in 10.0 mi NNE 4.6 mph - N/A   Clear
7:53 AM 62.6 °F 55.4 °F 77% 30.14 in 10.0 mi NE 4.6 mph - N/A   Clear
8:14 AM 64.4 °F 55.4 °F 73% 30.14 in 10.0 mi ENE 3.5 mph - N/A   Clear
8:34 AM 66.2 °F 55.4 °F 68% 30.13 in 10.0 mi East 4.6 mph - N/A   Clear
8:53 AM 68.0 °F 55.4 °F 64% 30.14 in 10.0 mi ENE 3.5 mph - N/A   Clear
9:14 AM 69.8 °F 53.6 °F 56% 30.14 in 10.0 mi ENE 3.5 mph - N/A   Clear
9:34 AM 69.8 °F 51.8 °F 53% 30.14 in 10.0 mi NE 3.5 mph - N/A   Clear
9:53 AM 71.6 °F 51.8 °F 50% 30.14 in 10.0 mi NE 8.1 mph - N/A   Clear
10:14 AM 71.6 °F 51.8 °F 50% 30.14 in 10.0 mi East 6.9 mph - N/A   Clear
10:34 AM 71.6 °F 53.6 °F 53% 30.14 in 10.0 mi ENE 6.9 mph - N/A   Clear
10:53 AM 73.4 °F 53.6 °F 50% 30.14 in 10.0 mi ENE 4.6 mph - N/A   Clear
11:14 AM 73.4 °F 51.8 °F 47% 30.14 in 10.0 mi NE 6.9 mph - N/A   Clear
11:34 AM 73.4 °F 51.8 °F 47% 30.15 in 10.0 mi Calm Calm - N/A   Clear
11:53 AM 75.2 °F 48.2 °F 38% 30.15 in 10.0 mi North 5.8 mph - N/A   Clear
12:14 PM 73.4 °F 48.2 °F 41% 30.15 in 10.0 mi North 5.8 mph - N/A   Clear
12:34 PM 75.2 °F 48.2 °F 38% 30.16 in 10.0 mi NE 8.1 mph - N/A   Scattered Clouds
12:54 PM 75.2 °F 48.2 °F 38% 30.15 in 10.0 mi East 4.6 mph - N/A   Scattered Clouds
1:14 PM 75.2 °F 48.2 °F 38% 30.15 in 10.0 mi NNE 4.6 mph - N/A   Scattered Clouds
1:34 PM 75.2 °F 46.4 °F 36% 30.15 in 10.0 mi North 6.9 mph - N/A   Scattered Clouds
1:54 PM 77.0 °F 46.4 °F 34% 30.15 in 10.0 mi NE 6.9 mph - N/A   Clear
2:14 PM 77.0 °F 46.4 °F 34% 30.15 in 10.0 mi East 5.8 mph - N/A   Clear
2:34 PM 78.8 °F 46.4 °F 32% 30.14 in 10.0 mi East 9.2 mph - N/A   Clear
2:54 PM 78.8 °F 46.4 °F 32% 30.14 in 10.0 mi NE 4.6 mph - N/A   Clear
3:14 PM 78.8 °F 46.4 °F 32% 30.14 in 10.0 mi NE 8.1 mph 20.7 mph N/A   Clear
3:34 PM 78.8 °F 46.4 °F 32% 30.14 in 10.0 mi ENE 4.6 mph - N/A   Clear
3:54 PM 78.8 °F 46.4 °F 32% 30.13 in 10.0 mi ESE 6.9 mph - N/A   Clear
4:14 PM 78.8 °F 46.4 °F 32% 30.13 in 10.0 mi NNE 5.8 mph - N/A   Clear
4:34 PM 80.6 °F 48.2 °F 32% 30.13 in 10.0 mi East 12.7 mph - N/A   Clear
4:54 PM 80.6 °F 48.2 °F 32% 30.13 in 10.0 mi East 9.2 mph - N/A   Clear
5:14 PM 78.8 °F 48.2 °F 34% 30.13 in 10.0 mi East 9.2 mph - N/A   Clear
5:34 PM 80.6 °F 48.2 °F 32% 30.13 in 10.0 mi ENE 9.2 mph - N/A   Clear
5:54 PM 78.8 °F 48.2 °F 34% 30.13 in 10.0 mi East 10.4 mph - N/A   Clear
6:14 PM 78.8 °F 48.2 °F 34% 30.13 in 10.0 mi East 11.5 mph - N/A   Clear
6:34 PM 78.8 °F 48.2 °F 34% 30.13 in 10.0 mi East 8.1 mph 16.1 mph N/A   Clear
6:54 PM 78.8 °F 48.2 °F 34% 30.13 in 10.0 mi East 6.9 mph - N/A   Clear
7:11 PM 78.8 °F 48.2 °F 34% 30.13 in 10.0 mi East 5.8 mph - N/A   Clear
7:34 PM 78.8 °F 48.2 °F 34% 30.13 in 10.0 mi ENE 5.8 mph - N/A   Clear
7:54 PM 77.0 °F 48.2 °F 36% 30.13 in 10.0 mi ENE 5.8 mph - N/A   Clear
8:14 PM 75.2 °F 53.6 °F 47% 30.13 in 10.0 mi Calm Calm - N/A   Clear
8:34 PM 75.2 °F 51.8 °F 44% 30.13 in 10.0 mi NE 4.6 mph - N/A   Clear
8:53 PM 73.4 °F 53.6 °F 50% 30.13 in 10.0 mi ENE 3.5 mph - N/A   Clear
9:14 PM 73.4 °F 51.8 °F 47% 30.14 in 10.0 mi NE 4.6 mph - N/A   Clear
9:34 PM 71.6 °F 53.6 °F 53% 30.14 in 10.0 mi Calm Calm - N/A   Clear
9:54 PM 71.6 °F 53.6 °F 53% 30.15 in 10.0 mi Calm Calm - N/A   Clear
10:14 PM 69.8 °F 53.6 °F 56% 30.15 in 10.0 mi Calm Calm - N/A   Clear
10:34 PM 69.8 °F 53.6 °F 56% 30.16 in 10.0 mi Calm Calm - N/A   Clear
10:54 PM 69.8 °F 53.6 °F 56% 30.16 in 10.0 mi Calm Calm - N/A   Clear
11:14 PM 66.2 °F 53.6 °F 64% 30.17 in 10.0 mi Calm Calm - N/A   Clear
11:34 PM 68.0 °F 53.6 °F 60% 30.17 in 10.0 mi Calm Calm - N/A   Clear
11:54 PM 68.0 °F 53.6 °F 60% 30.17 in 10.0 mi Calm Calm - N/A   Clear